Location: Brede
(50.9167°N, 0.6000°E)
Time: 09:41:30
(UTC+00:00)

Tiros 1 - Pass Details

Date: 27 November 2020
Orbit: 630 x 663 km, 48.4° (Epoch: 16 January)

Event Time Altitude Azimuth Distance (km) Brightness Sun altitude
Rises 19:23:11 0° 272° (W) 2,987 11.7 -31.7°
Reaches altitude 10° 19:25:34 10° 269° (W) 2,071 10.6 -32.0°
Enters shadow 19:28:10 31° 257° (WSW) 1,146 8.8 -32.4°
